| time (UTC) | temp F | wind direction | speed MPH | gust MPH | rain 1hr in | rain 24hr in | rain mn in | humidity % | barometer mb |
| 20260504173022 | 73 | 15 | 1.0 | 3.0 | 0.00 | 0.00 | 0.00 | 53 | 1006.7 |
| 20260504171519 | 71 | 21 | 1.0 | 4.0 | 0.00 | 0.00 | 0.00 | 56 | 1006.8 |
| 20260504081505 | 58 | 20 | 0.0 | 1.0 | 0.00 | 0.00 | 0.00 | 75 | 1005.5 |
| 20260504044546 | 64 | 254 | 0.0 | 0.0 | 0.00 | 0.00 | 0.00 | 66 | 1005.7 |
| 20260504043054 | 65 | 254 | 0.0 | 0.0 | 0.00 | 0.00 | 0.00 | 65 | 1005.7 |
| 20260504041546 | 66 | 254 | 0.0 | 0.0 | 0.00 | 0.00 | 0.00 | 66 | 1005.7 |
| 20260504040046 | 66 | 254 | 0.0 | 2.0 | 0.00 | 0.00 | 0.00 | 66 | 1005.8 |
| 20260504034552 | 67 | 254 | 1.0 | 3.0 | 0.00 | 0.00 | 0.00 | 65 | 1005.7 |
| 20260504033044 | 67 | 254 | 0.0 | 0.0 | 0.00 | 0.00 | 0.00 | 65 | 1005.7 |
| 20260504031544 | 68 | 254 | 0.0 | 0.0 | 0.00 | 0.00 | 0.00 | 64 | 1005.5 |
| 20260504030042 | 69 | 254 | 0.0 | 2.0 | 0.00 | 0.00 | 0.00 | 64 | 1005.6 |
| 20260504024548 | 70 | 254 | 1.0 | 4.0 | 0.00 | 0.00 | 0.00 | 63 | 1005.7 |
| 20260504023041 | 71 | 259 | 1.0 | 3.0 | 0.00 | 0.00 | 0.00 | 57 | 1005.7 |
| 20260504021540 | 73 | 259 | 0.0 | 3.0 | 0.00 | 0.00 | 0.00 | 56 | 1005.9 |
| 20260504020041 | 73 | 329 | 1.0 | 4.0 | 0.00 | 0.00 | 0.00 | 52 | 1006.0 |
| 20260504014538 | 74 | 265 | 1.0 | 5.0 | 0.00 | 0.00 | 0.00 | 51 | 1006.2 |
| 20260504013044 | 74 | 261 | 2.0 | 7.0 | 0.00 | 0.00 | 0.00 | 51 | 1006.2 |
| 20260504011532 | 76 | 258 | 2.0 | 7.0 | 0.00 | 0.00 | 0.00 | 49 | 1006.3 |
| 20260504010030 | 78 | 263 | 0.0 | 4.0 | 0.00 | 0.00 | 0.00 | 45 | 1006.6 |
| 20260504004530 | 78 | 5 | 1.0 | 5.0 | 0.00 | 0.00 | 0.00 | 44 | 1006.7 |
| 20260504003028 | 78 | 259 | 1.0 | 4.0 | 0.00 | 0.00 | 0.00 | 45 | 1006.9 |
| 20260504001534 | 78 | 271 | 2.0 | 8.0 | 0.00 | 0.00 | 0.00 | 44 | 1006.9 |
| 20260504000023 | 79 | 254 | 0.0 | 4.0 | 0.00 | 0.00 | 0.00 | 43 | 1007.2 |
| 20260503234522 | 79 | 267 | 1.0 | 5.0 | 0.00 | 0.00 | 0.00 | 40 | 1007.3 |
| 20260503233021 | 78 | 55 | 1.0 | 6.0 | 0.00 | 0.00 | 0.00 | 43 | 1007.5 |
| 20260503231516 | 77 | 259 | 1.0 | 7.0 | 0.00 | 0.00 | 0.00 | 45 | 1007.6 |
| 20260503230032 | 77 | 333 | 1.0 | 8.0 | 0.00 | 0.00 | 0.00 | 47 | 1007.9 |
| 20260503224513 | 77 | 242 | 2.0 | 7.0 | 0.00 | 0.00 | 0.00 | 46 | 1008.2 |
| 20260503223010 | 78 | 209 | 2.0 | 8.0 | 0.00 | 0.00 | 0.00 | 48 | 1008.3 |
| 20260503221508 | 78 | 246 | 2.0 | 8.0 | 0.00 | 0.00 | 0.00 | 48 | 1008.6 |
| 20260503220004 | 76 | 28 | 1.0 | 8.0 | 0.00 | 0.00 | 0.00 | 53 | 1008.7 |
| 20260503214503 | 75 | 257 | 3.0 | 8.0 | 0.00 | 0.00 | 0.00 | 52 | 1008.8 |
| 20260503213103 | 76 | 263 | 2.0 | 7.0 | 0.00 | 0.00 | 0.00 | 50 | 1008.9 |
| 20260503211553 | 75 | 240 | 3.0 | 9.0 | 0.00 | 0.00 | 0.00 | 54 | 1009.0 |
| 20260503210031 | 76 | 23 | 2.0 | 8.0 | 0.00 | 0.00 | 0.00 | 54 | 1009.2 |
| 20260503204530 | 75 | 254 | 2.0 | 7.0 | 0.00 | 0.00 | 0.00 | 53 | 1009.4 |
| 20260503203034 | 74 | 263 | 2.0 | 7.0 | 0.00 | 0.00 | 0.00 | 55 | 1009.7 |
| 20260503201524 | 73 | 246 | 3.0 | 10.0 | 0.00 | 0.00 | 0.00 | 52 | 1009.8 |
| 20260503200026 | 74 | 249 | 1.0 | 7.0 | 0.00 | 0.00 | 0.00 | 50 | 1009.9 |
| 20260503194520 | 74 | 254 | 1.0 | 7.0 | 0.00 | 0.00 | 0.00 | 55 | 1010.2 |
| 20260503193033 | 73 | 253 | 2.0 | 8.0 | 0.00 | 0.00 | 0.00 | 57 | 1010.2 |
| 20260503190056 | 73 | 236 | 3.0 | 9.0 | 0.00 | 0.00 | 0.00 | 62 | 1010.1 |
| 20260503184632 | 73 | 262 | 3.0 | 7.0 | 0.00 | 0.00 | 0.00 | 61 | 1010.2 |
| 20260503183033 | 71 | 257 | 2.0 | 7.0 | 0.00 | 0.00 | 0.00 | 64 | 1010.5 |
| 20260503181521 | 73 | 242 | 3.0 | 8.0 | 0.00 | 0.00 | 0.00 | 61 | 1010.6 |
| 20260503180019 | 72 | 41 | 0.0 | 4.0 | 0.00 | 0.00 | 0.00 | 55 | 1010.7 |
| 20260503174512 | 72 | 22 | 2.0 | 4.0 | 0.00 | 0.00 | 0.00 | 55 | 1011.0 |